Location: Poughquag
(41.6090°N, 73.6820°W)
Time: 10:03:11
(UTC-05:00)

SR - Pass Details

Date: 09 December 2023
Orbit: 574 x 868 km, 66.7° (Epoch: 25 February)

Event Time Altitude Azimuth Distance (km) Brightness Sun altitude
Rises 09:55:30 0° 201° (SSW) 3,233 ? 20.6°
Reaches altitude 10° 09:57:50 10° 199° (SSW) 2,351 ? 20.8°
Maximum altitude 10:03:15 70° 117° (ESE) 885 ? 21.2°
Drops below altitude 10° 10:09:02 10° 34° (NE) 2,501 ? 21.7°
Sets 10:11:34 0° 33° (NNE) 3,455 ? 21.9°
